Location: Newark
(34.0131°N, 4.3314°W)
Time: 07:14:12
(UTC+00:00)

Courier 1B - Visible Passes

Search period start: 23 October 2019 00:00
Search period end: 02 November 2019 00:00
Orbit: 962 x 1209 km, 28.3° (Epoch: 22 October)

Date Brightness Start Highest point End Pass type
(mag) Time Alt. Az. Time Alt. Az. Time Alt. Az.
23 Oct 8.2 18:56:09 10° WSW 19:03:49 58° S 19:08:02 28° ESE visible
23 Oct 9.2 20:50:33 10° W 20:54:56 31° WSW 20:54:56 31° WSW visible
24 Oct 8.4 18:02:16 10° WSW 18:09:53 58° S 18:17:33 10° ESE visible
24 Oct 8.3 19:56:29 10° W 20:03:59 49° SSW 20:04:31 48° S visible
25 Oct 8.4 19:02:30 10° W 19:10:05 53° S 19:14:08 28° SE visible
25 Oct 9.5 20:57:13 10° W 21:01:01 25° WSW 21:01:01 25° WSW visible
26 Oct 8.4 18:08:35 10° W 18:16:10 57° S 18:23:47 10° ESE visible
26 Oct 8.7 20:03:01 10° W 20:10:08 38° SSW 20:10:41 38° S visible
27 Oct 8.7 19:08:57 10° W 19:16:17 44° SSW 19:20:24 25° SE visible
27 Oct 9.9 21:04:20 10° WSW 21:07:19 18° SW 21:07:19 18° SW visible
28 Oct 8.6 18:15:00 10° W 18:22:24 50° SSW 18:29:55 10° ESE visible
28 Oct 9.2 20:09:51 10° WSW 20:16:13 27° SSW 20:17:06 27° SSW visible
29 Oct 9.1 19:15:37 10° W 19:22:25 33° SSW 19:26:57 19° SSE visible
29 Oct 10.2 21:12:48 10° SW 21:13:52 11° SW 21:13:52 11° SW visible
30 Oct 9.0 18:21:33 10° W 18:28:35 39° SSW 18:35:46 10° SE visible
30 Oct 9.8 20:17:22 10° WSW 20:22:12 18° SSW 20:23:50 17° SSW visible
31 Oct 9.7 19:22:41 10° WSW 19:28:28 23° SSW 19:33:54 11° SSE visible
01 Nov 9.5 18:28:22 10° W 18:34:41 28° SSW 18:41:09 10° SSE visible
